[[{"header":{"parameterUnit":"m.s-1","parameterCategory":1,"la1":30.2991,"la2":30.254,"lo1":-89.0895,"lo2":-89.0444,"dy":0.0017,"dx":0.0017,"nx":28,"ny":28,"refTime":"2025-09-19T03:00:00:Z","depth":0,"parameterNumber":2,"parameterNumberName":"U-component_of_WINDS"},"data":[0,0,0,0,0,0,0,0,0,0,0,0,0,0,0,0,0,0,0,0,0,0,0,0,0,0,0,0,0,0,0,0,0,0,0,0,0,0,0,0,0,0,0,0,0,0,0,0,0,0,0,0,0,0,0,0,0,0,3.7427,3.743,0,3.7653,3.7656,3.7658,3.7667,3.7665,3.7662,3.7659,3.7891,3.79,3.7908,0,0,0,0,0,0,0,0,0,0,0,0,0,3.7005,3.7013,3.7427,3.743,3.7433,3.7653,3.7656,3.7659,3.7668,3.7664,3.7661,3.7658,3.7888,3.7899,3.7909,0,0,0,0,0,0,0,0,0,0,0,0,0,3.7205,3.7015,3.7427,3.7464,3.7469,3.7652,3.7656,3.766,3.7668,3.7664,3.766,3.7657,3.7885,3.7898,3.7911,3.8072,0,0,3.795,3.7956,0,0,0,0,0,0,0,0,3.7194,3.7221,3.7455,3.7461,3.7468,3.7628,3.7592,3.7798,3.7669,3.7593,3.7659,3.7655,3.7807,3.7826,3.7878,3.8083,3.8093,3.7952,3.796,3.7965,3.7969,0,0,0,0,0,0,0,3.718,3.7211,3.7517,3.7459,3.7467,3.747,3.7494,3.7631,3.772,3.7599,3.76,3.7627,3.781,3.7865,3.7883,3.8096,3.7951,3.7963,3.7971,3.7976,3.8448,3.8453,0,0,0,0,0,0,3.7159,3.72,3.7509,3.7523,3.7318,3.748,3.7507,3.7581,3.7718,3.7736,3.763,3.7627,3.7845,3.7868,3.7891,3.8091,3.7965,3.7977,3.7985,3.8444,3.8449,3.8454,0,0,0,0,0,0,3.715,3.7186,3.75,3.7362,3.7402,3.7492,3.7574,3.7587,3.7643,3.7742,3.7758,3.767,3.7842,3.7873,3.8028,3.8099,3.7983,3.7995,3.8438,3.8445,3.8452,3.8491,0,0,0,0,0,0,3.7137,3.7183,3.7245,3.7363,3.741,3.7633,3.7579,3.7595,3.7665,3.7662,3.7784,3.78,3.7842,3.8008,3.8041,3.8115,3.8005,3.8432,3.8441,3.845,3.8484,3.8498,3.8511,0,0,0,0,0,3.7122,3.7246,3.7248,3.7285,3.7489,3.7637,3.7663,3.7708,3.7671,3.7734,3.7798,3.7796,3.8086,3.8024,3.8061,3.814,3.8428,3.8439,3.8449,3.8477,3.8495,3.8511,0,0,0,0,0,0,3.7134,3.7262,3.7266,3.7431,3.7523,3.7638,3.7719,3.7726,3.783,3.7823,3.7875,3.7902,3.8056,3.8114,3.8042,3.8305,3.8253,3.8271,3.8262,3.828,3.8293,3.8276,3.8016,0,0,0,0,0,3.7155,3.7264,3.7371,3.7507,3.7553,3.7628,3.7694,3.7721,3.7818,3.7857,3.7932,3.8027,3.814,3.8213,3.8322,3.8492,3.8519,3.8565,3.8578,3.8589,3.8605,3.8701,3.8723,3.8489,3.8489,3.8489,0,0,3.7202,3.7286,3.7351,3.7512,3.7586,3.7699,3.7661,3.7781,3.7865,3.7875,3.8027,3.8085,3.8194,3.8358,3.8434,3.8411,3.8675,3.8603,3.861,3.8621,3.8714,3.8736,3.8756,3.8497,3.8495,3.8494,0,0,3.7343,3.7417,3.754,3.7615,3.7728,3.7777,3.7807,3.7921,3.7961,3.8113,3.8124,3.8225,3.8417,3.8495,3.856,3.8733,3.8736,3.8767,3.8839,3.8932,3.8951,3.8967,3.9031,3.9053,3.8782,3.8783,3.8783,0,3.7387,3.7556,3.7602,3.7723,3.7794,3.7809,3.7934,3.8005,3.8147,3.8197,3.8168,3.8411,3.8486,3.8669,3.8711,3.8763,3.8799,3.8754,3.8944,3.8962,3.8978,3.9039,3.9062,3.8786,3.8785,3.8785,3.8785,0,3.7605,3.7722,3.7808,3.7946,3.8026,3.8148,3.8213,3.829,3.831,3.8363,3.8519,3.8609,3.8737,3.8782,3.8803,3.8969,3.8952,3.8933,3.8882,3.9002,3.9061,3.9084,3.879,3.8789,3.8788,3.8787,0,0,3.776,3.7922,3.7953,3.8016,3.8143,3.8235,3.8358,3.8484,3.8549,3.8647,3.8753,3.8917,3.8901,3.8975,3.9005,3.9086,3.922,3.9059,3.9062,3.9086,3.941,3.9424,3.945,3.9222,3.9227,3.9231,3.9402,0,3.7916,3.8136,3.8181,3.8372,3.8482,3.8498,3.8606,3.8696,3.8749,3.8851,3.8909,3.9025,3.8995,3.9039,3.9121,3.9186,3.9286,3.9174,3.9323,3.9327,3.9295,3.948,3.9495,3.9652,3.9425,3.9428,3.9431,0,3.8128,3.8232,3.8434,3.8547,3.8595,3.8691,3.8811,3.8907,3.901,3.9043,3.9126,3.9147,3.9278,3.922,3.9402,3.9325,3.9388,3.943,3.9437,3.9453,3.9387,3.9502,3.9703,3.9727,3.9467,3.9464,3.9462,0,3.8222,3.8413,3.8559,3.8612,3.8747,3.8815,3.8875,3.8973,3.9047,3.9151,3.92,3.9318,3.9383,3.9475,3.9529,3.9482,3.9707,3.9653,3.9739,3.9738,3.9786,3.9782,4.0,3.9825,3.9825,3.9824,3.9824,0,3.8393,3.8516,3.8603,3.8693,3.8832,3.8883,3.9019,3.9079,3.9167,3.9269,3.929,3.9386,3.945,3.9556,3.9598,3.9743,3.9772,3.9803,3.9813,3.9802,3.9798,3.9845,3.9835,3.9831,3.9829,3.9828,3.9827,0,3.8522,3.8585,3.8745,3.8861,3.8893,3.899,3.9089,3.9178,3.9231,3.936,3.9394,3.9478,3.9603,3.9665,3.9821,3.985,4.0014,4.0016,3.9979,3.9983,4.0066,4.0058,4.0322,4.036,4.0159,4.016,4.0162,0,3.8627,3.8723,3.8848,3.8918,3.898,3.9092,3.9167,3.9222,3.9299,3.9424,3.9498,3.9624,3.9728,3.9928,4.0003,4.0123,4.0129,4.0214,4.0148,4.0134,4.0132,4.0126,4.0137,4.0226,4.0228,4.0229,4.0231,0,3.8808,3.8835,3.8942,3.9061,3.915,3.9246,3.934,3.9397,3.9467,3.9553,3.9681,3.9762,3.9921,4.0047,4.0173,4.0235,4.0246,4.0251,4.0277,4.0267,4.0242,4.0258,4.0012,4.0245,4.0243,4.0242,4.0241,4.0241,3.893,3.9016,3.9118,3.9237,3.9314,3.9403,3.9492,3.9556,3.9664,3.9798,3.9824,3.9961,4.0063,4.0232,4.0299,4.0407,4.0389,4.0427,4.0437,4.0445,4.045,4.0224,4.043,4.043,4.0429,4.0429,4.0429,0,3.9113,3.9179,3.9288,3.942,3.9515,3.9516,3.9621,3.97,3.982,3.9914,4.0016,4.0164,4.0286,4.0372,4.0497,4.0567,4.0575,4.0598,4.0594,4.0609,4.0459,4.0424,4.059,4.059,4.059,4.059,4.059,4.059,3.9219,3.9365,3.9404,3.9589,3.9655,3.9789,3.9849,3.9931,4.0007,4.0171,4.0273,4.0328,4.042,4.0551,4.0664,4.0686,4.0732,4.0755,4.0777,4.0636,4.0619,4.0603,4.057,4.0764,4.0765,4.0919,4.092,4.0921]},{"header":{"parameterUnit":"m.s-1","parameterCategory":1,"la1":30.2991,"la2":30.254,"lo1":-89.0895,"lo2":-89.0444,"dy":0.0017,"dx":0.0017,"nx":28,"ny":28,"refTime":"2025-09-19T03:00:00:Z","depth":0,"parameterNumber":3,"parameterNumberName":"V-component_of_WINDS"},"data":[0,0,0,0,0,0,0,0,0,0,0,0,0,0,0,0,0,0,0,0,0,0,0,0,0,0,0,0,0,0,0,0,0,0,0,0,0,0,0,0,0,0,0,0,0,0,0,0,0,0,0,0,0,0,0,0,0,0,-1.8347,-1.8348,0,-1.8433,-1.8434,-1.8435,-1.846,-1.846,-1.8459,-1.8459,-1.8544,-1.8546,-1.8549,0,0,0,0,0,0,0,0,0,0,0,0,0,-1.8203,-1.8206,-1.8347,-1.8348,-1.8349,-1.8433,-1.8434,-1.8435,-1.846,-1.846,-1.8459,-1.8459,-1.8543,-1.8546,-1.8549,0,0,0,0,0,0,0,0,0,0,0,0,0,-1.8275,-1.8207,-1.8347,-1.8372,-1.8375,-1.8433,-1.8434,-1.8435,-1.846,-1.846,-1.8459,-1.8458,-1.8542,-1.8546,-1.855,-1.8588,0,0,-1.8562,-1.8564,0,0,0,0,0,0,0,0,-1.8271,-1.828,-1.8367,-1.837,-1.8374,-1.8435,-1.8414,-1.8486,-1.846,-1.8428,-1.8459,-1.8458,-1.8508,-1.8515,-1.8532,-1.8592,-1.8595,-1.8562,-1.8565,-1.8566,-1.8567,0,0,0,0,0,0,0,-1.8266,-1.8277,-1.8381,-1.8368,-1.8373,-1.8378,-1.8388,-1.8428,-1.847,-1.8431,-1.8433,-1.8443,-1.851,-1.8528,-1.8534,-1.8596,-1.8562,-1.8566,-1.8568,-1.857,-1.8692,-1.8692,0,0,0,0,0,0,-1.8257,-1.8272,-1.8378,-1.8384,-1.832,-1.8381,-1.8392,-1.8416,-1.847,-1.8478,-1.8443,-1.8443,-1.8522,-1.853,-1.8537,-1.8585,-1.8566,-1.857,-1.8572,-1.8691,-1.8692,-1.8693,0,0,0,0,0,0,-1.8254,-1.8266,-1.8375,-1.8329,-1.8343,-1.8385,-1.8412,-1.8418,-1.8437,-1.848,-1.8487,-1.8454,-1.8521,-1.8532,-1.8575,-1.8589,-1.8572,-1.8575,-1.869,-1.8691,-1.8692,-1.8681,0,0,0,0,0,0,-1.825,-1.8265,-1.828,-1.8329,-1.8345,-1.8412,-1.8412,-1.842,-1.8444,-1.8445,-1.8492,-1.8499,-1.8522,-1.8569,-1.8579,-1.8594,-1.8579,-1.8689,-1.869,-1.8692,-1.8681,-1.8682,-1.8683,0,0,0,0,0,-1.8244,-1.8273,-1.8281,-1.8293,-1.8365,-1.8413,-1.8422,-1.8448,-1.8445,-1.846,-1.8488,-1.8498,-1.8586,-1.8573,-1.8585,-1.8601,-1.8688,-1.869,-1.8692,-1.868,-1.8682,-1.8683,0,0,0,0,0,0,-1.8224,-1.828,-1.8289,-1.8335,-1.8369,-1.8417,-1.8437,-1.8449,-1.8484,-1.8483,-1.8514,-1.8524,-1.8565,-1.8588,-1.8573,-1.8641,-1.8637,-1.8641,-1.8624,-1.8626,-1.8628,-1.8621,-1.8582,0,0,0,0,0,-1.8225,-1.8259,-1.8306,-1.8341,-1.8358,-1.8395,-1.8416,-1.8433,-1.847,-1.8484,-1.8515,-1.8549,-1.8584,-1.8607,-1.8642,-1.8685,-1.8695,-1.8701,-1.8703,-1.8704,-1.8706,-1.8731,-1.8734,-1.8699,-1.8699,-1.8699,0,0,-1.8226,-1.8261,-1.8281,-1.8338,-1.8367,-1.8401,-1.8406,-1.8442,-1.8468,-1.8489,-1.8532,-1.8556,-1.8596,-1.8639,-1.866,-1.8659,-1.8719,-1.8706,-1.8706,-1.8709,-1.8733,-1.8736,-1.8739,-1.87,-1.87,-1.87,0,0,-1.8247,-1.8277,-1.831,-1.8339,-1.8383,-1.8407,-1.8415,-1.8461,-1.8478,-1.8522,-1.8539,-1.857,-1.863,-1.8658,-1.868,-1.8713,-1.8723,-1.8723,-1.8729,-1.8753,-1.8756,-1.8758,-1.8769,-1.8773,-1.8726,-1.8726,-1.8726,0,-1.8243,-1.8296,-1.8325,-1.8361,-1.8385,-1.8408,-1.8441,-1.8467,-1.8519,-1.8535,-1.8534,-1.8611,-1.864,-1.869,-1.8698,-1.8715,-1.8725,-1.8717,-1.8753,-1.8756,-1.8759,-1.877,-1.8774,-1.8726,-1.8726,-1.8726,-1.8726,0,-1.829,-1.8326,-1.8347,-1.8399,-1.8426,-1.846,-1.8493,-1.8517,-1.8532,-1.8557,-1.8601,-1.8636,-1.8679,-1.8692,-1.8707,-1.8745,-1.8743,-1.8747,-1.8744,-1.8761,-1.8772,-1.8776,-1.8725,-1.8726,-1.8726,-1.8726,0,0,-1.8298,-1.8366,-1.8373,-1.8397,-1.8447,-1.8475,-1.8511,-1.8553,-1.8573,-1.8609,-1.8638,-1.869,-1.8694,-1.8719,-1.8737,-1.8758,-1.8781,-1.876,-1.8761,-1.8762,-1.8824,-1.882,-1.8825,-1.8789,-1.879,-1.8791,-1.8821,0,-1.8325,-1.8389,-1.8417,-1.8468,-1.8502,-1.8524,-1.8555,-1.8588,-1.8612,-1.8644,-1.867,-1.8706,-1.8709,-1.8724,-1.8746,-1.8774,-1.8794,-1.8772,-1.8816,-1.8817,-1.8804,-1.8831,-1.8826,-1.8853,-1.8825,-1.8826,-1.8827,0,-1.8364,-1.8401,-1.8456,-1.8502,-1.8518,-1.8545,-1.8586,-1.8617,-1.8655,-1.8671,-1.87,-1.8718,-1.8755,-1.875,-1.8802,-1.8786,-1.8806,-1.8823,-1.8824,-1.8828,-1.8822,-1.8834,-1.8862,-1.8866,-1.8834,-1.8833,-1.8833,0,-1.8364,-1.8427,-1.8468,-1.8488,-1.8544,-1.8562,-1.8586,-1.8624,-1.8648,-1.8685,-1.87,-1.874,-1.8762,-1.8792,-1.882,-1.8814,-1.8868,-1.8866,-1.8882,-1.8881,-1.8891,-1.889,-1.8922,-1.8906,-1.8906,-1.8905,-1.8905,0,-1.839,-1.8422,-1.8469,-1.8494,-1.8531,-1.8563,-1.8599,-1.8624,-1.8658,-1.8688,-1.871,-1.8738,-1.8773,-1.8805,-1.8827,-1.8866,-1.8876,-1.8889,-1.8895,-1.8887,-1.8885,-1.8899,-1.8898,-1.8907,-1.8906,-1.8906,-1.8906,0,-1.8395,-1.8428,-1.8474,-1.8524,-1.8537,-1.8562,-1.8604,-1.8629,-1.8655,-1.8692,-1.8703,-1.8743,-1.8782,-1.8813,-1.8864,-1.8878,-1.8919,-1.8926,-1.8906,-1.8909,-1.8923,-1.8921,-1.8964,-1.8971,-1.895,-1.8951,-1.8951,0,-1.8409,-1.8435,-1.8487,-1.851,-1.8534,-1.8569,-1.8594,-1.8626,-1.8651,-1.8698,-1.8717,-1.8758,-1.8792,-1.8854,-1.8886,-1.8925,-1.8932,-1.8945,-1.8938,-1.893,-1.8932,-1.893,-1.8932,-1.8945,-1.8945,-1.8945,-1.8945,0,-1.843,-1.8445,-1.8481,-1.8523,-1.8552,-1.8586,-1.8621,-1.8637,-1.8676,-1.8703,-1.8744,-1.877,-1.8823,-1.8863,-1.8906,-1.893,-1.8944,-1.8947,-1.8953,-1.8945,-1.8932,-1.8939,-1.8907,-1.8946,-1.8946,-1.8946,-1.8946,-1.8946,-1.844,-1.8464,-1.8505,-1.8544,-1.8574,-1.8605,-1.8632,-1.8661,-1.8696,-1.8741,-1.8758,-1.88,-1.8839,-1.8898,-1.8922,-1.8955,-1.8956,-1.8964,-1.8966,-1.8967,-1.8966,-1.8928,-1.8963,-1.8963,-1.8963,-1.8963,-1.8963,0,-1.8462,-1.8489,-1.8525,-1.8573,-1.8604,-1.8616,-1.8655,-1.8679,-1.8716,-1.8752,-1.8785,-1.8832,-1.8871,-1.8908,-1.8949,-1.8968,-1.8975,-1.8978,-1.8976,-1.8981,-1.8963,-1.8954,-1.8971,-1.8971,-1.8971,-1.8971,-1.8971,-1.8971,-1.8476,-1.8518,-1.8538,-1.8594,-1.8621,-1.8663,-1.8684,-1.8714,-1.8742,-1.8794,-1.8827,-1.8851,-1.8887,-1.893,-1.8967,-1.8977,-1.899,-1.8991,-1.9002,-1.8984,-1.8982,-1.8981,-1.8973,-1.8993,-1.8994,-1.9017,-1.9017,-1.9018]}]]